Time,TemperatureF,DewpointF,PressureIn,WindDirection,WindDirectionDegrees,WindSpeedMPH,WindSpeedGustMPH,Humidity,HourlyPrecipIn,Conditions,Clouds,dailyrainin,SoftwareType,DateUTC
2013-03-02 00:02:00,44.0,-99.9,-100.00,NE,41,2.0,3.0,-999,-99.99,,,-99.99,,2013-03-02 07:02:00,
2013-03-02 00:32:00,43.0,-99.9,-100.00,SW,226,1.0,4.0,-999,-99.99,,,-99.99,,2013-03-02 07:32:00,
2013-03-02 00:42:00,43.0,-99.9,-100.00,SW,226,1.0,4.0,-999,-99.99,,,-99.99,,2013-03-02 07:42:00,
2013-03-02 00:52:00,43.0,-99.9,-100.00,SW,226,1.0,4.0,-999,-99.99,,,-99.99,,2013-03-02 07:52:00,
2013-03-02 01:32:00,45.0,-99.9,-100.00,NNW,337,1.0,4.0,-999,-99.99,,,-99.99,,2013-03-02 08:32:00,
2013-03-02 01:43:00,45.0,-99.9,-100.00,NNW,337,1.0,4.0,-999,-99.99,,,-99.99,,2013-03-02 08:43:00,
2013-03-02 03:22:00,40.0,-99.9,-100.00,SSW,212,4.0,7.0,-999,-99.99,,,-99.99,,2013-03-02 10:22:00,
2013-03-02 03:32:00,40.0,-99.9,-100.00,SSW,212,4.0,7.0,-999,-99.99,,,-99.99,,2013-03-02 10:32:00,
2013-03-02 03:40:00,40.0,-99.9,-100.00,NNE,18,4.0,7.0,-999,-99.99,,,-99.99,,2013-03-02 10:40:00,
2013-03-02 04:22:00,40.0,-99.9,-100.00,NNE,18,4.0,7.0,-999,-99.99,,,-99.99,,2013-03-02 11:22:00,
2013-03-02 04:32:00,40.0,-99.9,-100.00,NNE,18,4.0,7.0,-999,-99.99,,,-99.99,,2013-03-02 11:32:00,
2013-03-02 05:40:00,40.0,-99.9,-100.00,NNE,23,2.0,3.0,-999,-99.99,,,-99.99,,2013-03-02 12:40:00,
2013-03-02 06:22:00,40.0,-99.9,-100.00,NNE,23,2.0,3.0,-999,-99.99,,,-99.99,,2013-03-02 13:22:00,
2013-03-02 06:32:00,40.0,-99.9,-100.00,NNE,23,2.0,3.0,-999,-99.99,,,-99.99,,2013-03-02 13:32:00,
2013-03-02 06:50:00,37.0,-99.9,-100.00,SSW,198,2.0,4.0,-999,-99.99,,,-99.99,,2013-03-02 13:50:00,
2013-03-02 07:01:00,34.0,-99.9,-100.00,NE,39,5.0,6.0,-999,-99.99,,,-99.99,,2013-03-02 14:01:00,
2013-03-02 07:11:00,34.0,-99.9,-100.00,NE,39,5.0,6.0,-999,-99.99,,,-99.99,,2013-03-02 14:11:00,
2013-03-02 07:20:00,46.0,-99.9,-100.00,NE,41,7.0,7.0,-999,-99.99,,,-99.99,,2013-03-02 14:20:00,
2013-03-02 07:22:00,36.0,-99.9,-100.00,South,179,0.0,5.0,-999,-99.99,,,-99.99,,2013-03-02 14:22:00,
2013-03-02 07:32:00,37.0,-99.9,-100.00,SSW,198,2.0,4.0,-999,-99.99,,,-99.99,,2013-03-02 14:32:00,
2013-03-02 07:42:00,37.0,-99.9,-100.00,SSW,198,2.0,4.0,-999,-99.99,,,-99.99,,2013-03-02 14:42:00,
2013-03-02 08:02:00,46.0,-99.9,-100.00,NE,41,7.0,7.0,-999,-99.99,,,-99.99,,2013-03-02 15:02:00,
2013-03-02 08:12:00,46.0,-99.9,-100.00,NE,41,7.0,7.0,-999,-99.99,,,-99.99,,2013-03-02 15:12:00,
2013-03-02 08:32:00,52.0,-99.9,-100.00,WSW,247,0.0,3.0,-999,-99.99,,,-99.99,,2013-03-02 15:32:00,
2013-03-02 08:40:00,53.0,-99.9,-100.00,NNE,19,2.0,5.0,-999,-99.99,,,-99.99,,2013-03-02 15:40:00,
2013-03-02 08:42:00,52.0,-99.9,-100.00,WSW,247,0.0,3.0,-999,-99.99,,,-99.99,,2013-03-02 15:42:00,
2013-03-02 09:22:00,53.0,-99.9,-100.00,NNE,19,2.0,5.0,-999,-99.99,,,-99.99,,2013-03-02 16:22:00,
2013-03-02 09:32:00,53.0,-99.9,-100.00,NNE,19,2.0,5.0,-999,-99.99,,,-99.99,,2013-03-02 16:32:00,
2013-03-02 10:32:00,61.0,-99.9,-100.00,WSW,249,2.0,4.0,-999,-99.99,,,-99.99,,2013-03-02 17:32:00,
2013-03-02 10:42:00,61.0,-99.9,-100.00,WSW,249,2.0,4.0,-999,-99.99,,,-99.99,,2013-03-02 17:42:00,
2013-03-02 11:22:00,65.0,-99.9,-100.00,WSW,237,1.0,4.0,-999,-99.99,,,-99.99,,2013-03-02 18:22:00,
2013-03-02 11:32:00,65.0,-99.9,-100.00,South,172,0.0,3.0,-999,-99.99,,,-99.99,,2013-03-02 18:32:00,
2013-03-02 11:42:00,65.0,-99.9,-100.00,South,172,0.0,3.0,-999,-99.99,,,-99.99,,2013-03-02 18:42:00,
2013-03-02 11:50:00,66.0,-99.9,-100.00,NNE,19,3.0,4.0,-999,-99.99,,,-99.99,,2013-03-02 18:50:00,
2013-03-02 12:32:00,66.0,-99.9,-100.00,NNE,19,3.0,4.0,-999,-99.99,,,-99.99,,2013-03-02 19:32:00,
2013-03-02 12:43:00,66.0,-99.9,-100.00,NNE,19,3.0,4.0,-999,-99.99,,,-99.99,,2013-03-02 19:43:00,
2013-03-02 13:32:00,66.0,-99.9,-100.00,SW,218,6.0,6.0,-999,-99.99,,,-99.99,,2013-03-02 20:32:00,
2013-03-02 13:42:00,66.0,-99.9,-100.00,SW,218,6.0,6.0,-999,-99.99,,,-99.99,,2013-03-02 20:42:00,
2013-03-02 13:53:00,66.0,-99.9,-100.00,SW,218,6.0,6.0,-999,-99.99,,,-99.99,,2013-03-02 20:53:00,
2013-03-02 14:22:00,66.0,-99.9,-100.00,SSE,154,4.0,5.0,-999,-99.99,,,-99.99,,2013-03-02 21:22:00,
2013-03-02 14:32:00,66.0,-99.9,-100.00,SSE,154,4.0,5.0,-999,-99.99,,,-99.99,,2013-03-02 21:32:00,
2013-03-02 14:50:00,65.0,-99.9,-100.00,SSW,206,3.0,4.0,-999,-99.99,,,-99.99,,2013-03-02 21:50:00,
2013-03-02 15:32:00,65.0,-99.9,-100.00,SSW,206,3.0,4.0,-999,-99.99,,,-99.99,,2013-03-02 22:32:00,
2013-03-02 15:42:00,65.0,-99.9,-100.00,SSW,206,3.0,4.0,-999,-99.99,,,-99.99,,2013-03-02 22:42:00,
2013-03-02 16:22:00,73.0,-99.9,-100.00,North,2,1.0,3.0,-999,-99.99,,,-99.99,,2013-03-02 23:22:00,
2013-03-02 16:32:00,73.0,-99.9,-100.00,North,2,1.0,3.0,-999,-99.99,,,-99.99,,2013-03-02 23:32:00,
2013-03-02 16:42:00,73.0,-99.9,-100.00,North,2,1.0,3.0,-999,-99.99,,,-99.99,,2013-03-02 23:42:00,
2013-03-02 18:32:00,72.0,-99.9,-100.00,NE,53,0.0,1.0,-999,-99.99,,,-99.99,,2013-03-03 01:32:00,
2013-03-02 18:42:00,72.0,-99.9,-100.00,NE,53,0.0,1.0,-999,-99.99,,,-99.99,,2013-03-03 01:42:00,
2013-03-02 19:20:00,62.0,-99.9,-100.00,SSW,204,4.0,4.0,-999,-99.99,,,-99.99,,2013-03-03 02:20:00,
2013-03-02 19:22:00,65.0,-99.9,-100.00,South,179,1.0,1.0,-999,-99.99,,,-99.99,,2013-03-03 02:22:00,
2013-03-02 19:32:00,63.0,-99.9,-100.00,South,185,2.0,2.0,-999,-99.99,,,-99.99,,2013-03-03 02:32:00,
2013-03-02 19:42:00,63.0,-99.9,-100.00,South,185,2.0,2.0,-999,-99.99,,,-99.99,,2013-03-03 02:42:00,
2013-03-02 19:52:00,62.0,-99.9,-100.00,NE,42,1.0,2.0,-999,-99.99,,,-99.99,,2013-03-03 02:52:00,
2013-03-02 20:02:00,62.0,-99.9,-100.00,SSW,204,4.0,4.0,-999,-99.99,,,-99.99,,2013-03-03 03:02:00,
2013-03-02 20:11:00,62.0,-99.9,-100.00,SSW,204,4.0,4.0,-999,-99.99,,,-99.99,,2013-03-03 03:11:00,
2013-03-02 20:32:00,60.0,-99.9,-100.00,NW,309,0.0,3.0,-999,-99.99,,,-99.99,,2013-03-03 03:32:00,
2013-03-02 20:42:00,60.0,-99.9,-100.00,NW,309,0.0,3.0,-999,-99.99,,,-99.99,,2013-03-03 03:42:00,
2013-03-02 20:52:00,61.0,-99.9,-100.00,NNE,30,1.0,3.0,-999,-99.99,,,-99.99,,2013-03-03 03:52:00,
2013-03-02 21:01:00,61.0,-99.9,-100.00,NNE,30,1.0,3.0,-999,-99.99,,,-99.99,,2013-03-03 04:01:00,
2013-03-02 21:10:00,57.0,-99.9,-100.00,SSW,209,6.0,7.0,-999,-99.99,,,-99.99,,2013-03-03 04:10:00,
2013-03-02 21:52:00,57.0,-99.9,-100.00,SSW,209,6.0,7.0,-999,-99.99,,,-99.99,,2013-03-03 04:52:00,
2013-03-02 22:02:00,57.0,-99.9,-100.00,SSW,209,6.0,7.0,-999,-99.99,,,-99.99,,2013-03-03 05:02:00,
2013-03-02 22:40:00,54.0,-99.9,-100.00,SSW,203,6.0,11.0,-999,-99.99,,,-99.99,,2013-03-03 05:40:00,
2013-03-02 23:22:00,54.0,-99.9,-100.00,SSW,203,6.0,11.0,-999,-99.99,,,-99.99,,2013-03-03 06:22:00,
2013-03-02 23:32:00,54.0,-99.9,-100.00,SSW,203,6.0,11.0,-999,-99.99,,,-99.99,,2013-03-03 06:32:00,